[[{"header":{"parameterUnit":"m.s-1","parameterCategory":1,"la1":30.2991,"la2":30.254,"lo1":-89.0895,"lo2":-89.0444,"dy":0.0017,"dx":0.0017,"nx":28,"ny":28,"refTime":"2026-02-03T09:00:00:Z","depth":0,"parameterNumber":2,"parameterNumberName":"U-component_of_WINDS"},"data":[0,0,0,0,0,0,0,0,0,0,0,0,0,0,0,0,0,0,0,0,0,0,0,0,0,0,0,0,0,0,0,0,0,0,0,0,0,0,0,0,0,0,0,0,0,0,0,0,0,0,0,0,0,0,0,0,0,0,4.4591,4.4592,0,4.474,4.4742,4.4743,4.4726,4.4723,4.4721,4.4719,4.4869,4.4875,4.4881,0,0,0,0,0,0,0,0,0,0,0,0,0,4.4288,4.4293,4.4591,4.4593,4.4594,4.474,4.4742,4.4744,4.4726,4.4723,4.472,4.4717,4.4866,4.4874,4.4881,0,0,0,0,0,0,0,0,0,0,0,0,0,4.4426,4.4295,4.459,4.4603,4.4606,4.4739,4.4742,4.4744,4.4727,4.4723,4.4719,4.4716,4.4864,4.4873,4.4882,4.5012,0,0,4.4911,4.4915,0,0,0,0,0,0,0,0,4.4418,4.4437,4.4599,4.4602,4.4606,4.4711,4.469,4.4834,4.4728,4.4681,4.4718,4.4714,4.4819,4.4831,4.4867,4.5019,4.5025,4.4912,4.4917,4.4921,4.4924,0,0,0,0,0,0,0,4.4409,4.4431,4.465,4.4602,4.4606,4.4601,4.4616,4.4717,4.4768,4.4684,4.4684,4.4702,4.482,4.4858,4.4871,4.5027,4.4911,4.492,4.4925,4.4929,4.5292,4.5296,0,0,0,0,0,0,4.4396,4.4423,4.4645,4.4654,4.4501,4.4609,4.4627,4.468,4.4767,4.4777,4.4705,4.47,4.4844,4.486,4.4876,4.5032,4.4921,4.493,4.4935,4.5288,4.5293,4.5297,0,0,0,0,0,0,4.439,4.4416,4.4639,4.4538,4.4566,4.4618,4.4679,4.4685,4.4724,4.4782,4.4791,4.4735,4.4842,4.4863,4.4978,4.5037,4.4934,4.4943,4.5283,4.529,4.5295,4.5347,0,0,0,0,0,0,4.4381,4.4414,4.4464,4.454,4.4572,4.474,4.4682,4.4691,4.474,4.4736,4.4813,4.4822,4.4841,4.4964,4.4988,4.5048,4.495,4.5278,4.5286,4.5293,4.534,4.5354,4.5366,0,0,0,0,0,4.4371,4.4472,4.4467,4.4494,4.4636,4.4743,4.4761,4.4782,4.4745,4.4796,4.4833,4.4819,4.5028,4.4976,4.5002,4.5067,4.5275,4.5284,4.5293,4.5334,4.5351,4.5366,0,0,0,0,0,0,4.4401,4.4482,4.4477,4.4607,4.4668,4.474,4.4804,4.4799,4.4871,4.4864,4.4886,4.4903,4.5019,4.5055,4.4996,4.5196,4.5146,4.5161,4.5169,4.5185,4.5198,4.5186,4.4958,0,0,0,0,0,4.4424,4.4505,4.4571,4.4679,4.471,4.4752,4.4799,4.481,4.4874,4.4899,4.4945,4.5007,4.5086,4.5138,4.5214,4.5346,4.5361,4.5403,4.5416,4.5426,4.5438,4.5509,4.5528,4.5327,4.5327,4.5327,0,0,4.4469,4.4524,4.4573,4.4686,4.4735,4.4818,4.4774,4.4863,4.4924,4.4913,4.5024,4.5061,4.5131,4.5255,4.5312,4.5288,4.5497,4.5438,4.5445,4.5452,4.552,4.5539,4.5556,4.5333,4.5332,4.5331,0,0,4.4595,4.4645,4.474,4.479,4.4865,4.4893,4.4916,4.4989,4.5012,4.5125,4.5118,4.5191,4.5328,4.5378,4.5421,4.5567,4.5557,4.5592,4.5658,4.5727,4.5743,4.5757,4.5808,4.5826,4.5604,4.5604,4.5604,0,4.4642,4.4767,4.4789,4.488,4.4929,4.4924,4.502,4.5067,4.5163,4.5197,4.5169,4.5341,4.5388,4.5523,4.5559,4.5595,4.562,4.5582,4.5739,4.5754,4.5767,4.5816,4.5835,4.5607,4.5607,4.5607,4.5606,0,4.482,4.4907,4.4975,4.5069,4.5126,4.5219,4.5254,4.5309,4.5316,4.5346,4.546,4.5517,4.5605,4.5638,4.5644,4.5774,4.5757,4.5735,4.5684,4.5789,4.5835,4.5854,4.5613,4.5611,4.561,4.5609,0,0,4.4967,4.5073,4.5097,4.514,4.5223,4.529,4.5383,4.547,4.5516,4.5583,4.566,4.5776,4.5756,4.5805,4.5818,4.5879,4.5989,4.5849,4.585,4.5871,4.6134,4.6149,4.6171,4.5984,4.5988,4.5991,4.6128,0,4.5099,4.5264,4.5287,4.5432,4.5512,4.5509,4.559,4.5649,4.568,4.5752,4.5786,4.5867,4.5835,4.5865,4.5926,4.5963,4.6042,4.5954,4.6054,4.6058,4.6035,4.6195,4.6211,4.6338,4.6146,4.6149,4.6152,0,4.5275,4.5348,4.5501,4.5574,4.5608,4.568,4.5761,4.5831,4.5898,4.5916,4.5972,4.5977,4.6072,4.6019,4.6149,4.6089,4.6131,4.6156,4.6162,4.617,4.6109,4.6206,4.6379,4.6397,4.618,4.6178,4.6176,0,4.5364,4.5501,4.561,4.5647,4.5735,4.5785,4.5824,4.5888,4.5939,4.601,4.6043,4.6124,4.6167,4.623,4.6256,4.6215,4.6384,4.6334,4.6401,4.64,4.6434,4.6432,4.6615,4.6466,4.6465,4.6465,4.6464,0,4.5508,4.5602,4.5651,4.5718,4.5823,4.5849,4.5951,4.5988,4.6045,4.6119,4.6122,4.619,4.6222,4.6295,4.6317,4.642,4.6441,4.6457,4.6461,4.6456,4.6453,4.6482,4.6473,4.647,4.6469,4.6468,4.6467,0,4.5625,4.5662,4.5781,4.5855,4.5876,4.595,4.6013,4.6077,4.6109,4.6201,4.6224,4.6273,4.636,4.6393,4.6498,4.6512,4.6632,4.663,4.6609,4.661,4.6674,4.6667,4.6881,4.691,4.6743,4.6745,4.6746,0,4.5713,4.5785,4.5868,4.5918,4.5958,4.6039,4.6091,4.612,4.6174,4.6257,4.6311,4.6398,4.6468,4.6606,4.665,4.6731,4.673,4.6799,4.6741,4.6734,4.6729,4.6723,4.673,4.6809,4.6811,4.6812,4.6813,0,4.5865,4.588,4.5956,4.6039,4.6102,4.6168,4.6232,4.6273,4.6311,4.6372,4.6461,4.6516,4.6625,4.671,4.6793,4.6832,4.6829,4.6832,4.6851,4.6845,4.6829,4.6837,4.6636,4.6826,4.6825,4.6824,4.6823,4.6822,4.5968,4.6032,4.6101,4.6185,4.6237,4.6298,4.6362,4.6402,4.6478,4.6569,4.6581,4.6677,4.6742,4.6854,4.6896,4.697,4.6952,4.698,4.6987,4.6993,4.6997,4.682,4.6986,4.6986,4.6985,4.6985,4.6985,0,4.6119,4.6163,4.6241,4.6332,4.6398,4.6392,4.6464,4.6519,4.6603,4.6666,4.6736,4.6838,4.6921,4.6973,4.7056,4.7106,4.7106,4.7127,4.7122,4.7131,4.701,4.6984,4.7125,4.7125,4.7125,4.7125,4.7125,4.7124,4.6204,4.6312,4.6336,4.6469,4.6513,4.6607,4.6648,4.6704,4.6754,4.6868,4.6938,4.6972,4.703,4.7118,4.7194,4.7207,4.7236,4.7258,4.7269,4.7154,4.7139,4.7125,4.7101,4.7264,4.7265,4.7383,4.7384,4.7385]},{"header":{"parameterUnit":"m.s-1","parameterCategory":1,"la1":30.2991,"la2":30.254,"lo1":-89.0895,"lo2":-89.0444,"dy":0.0017,"dx":0.0017,"nx":28,"ny":28,"refTime":"2026-02-03T09:00:00:Z","depth":0,"parameterNumber":3,"parameterNumberName":"V-component_of_WINDS"},"data":[0,0,0,0,0,0,0,0,0,0,0,0,0,0,0,0,0,0,0,0,0,0,0,0,0,0,0,0,0,0,0,0,0,0,0,0,0,0,0,0,0,0,0,0,0,0,0,0,0,0,0,0,0,0,0,0,0,0,0.8269,0.8273,0,0.8694,0.8699,0.8704,0.8764,0.876,0.8756,0.8752,0.9198,0.9213,0.9228,0,0,0,0,0,0,0,0,0,0,0,0,0,0.7513,0.7527,0.8268,0.8274,0.8279,0.8693,0.8699,0.8705,0.8765,0.876,0.8755,0.875,0.9193,0.9211,0.923,0,0,0,0,0,0,0,0,0,0,0,0,0,0.788,0.7531,0.8268,0.8358,0.8371,0.8692,0.8699,0.8706,0.8766,0.876,0.8754,0.8748,0.9186,0.9209,0.9232,0.9495,0,0,0.9303,0.9314,0,0,0,0,0,0,0,0,0.786,0.7908,0.834,0.8353,0.8367,0.8669,0.8596,0.8971,0.8767,0.8616,0.8752,0.8745,0.9027,0.9063,0.9157,0.9516,0.9535,0.9305,0.932,0.933,0.9336,0,0,0,0,0,0,0,0.7834,0.789,0.8437,0.8346,0.8363,0.838,0.8425,0.8667,0.885,0.8629,0.8634,0.8683,0.9034,0.9134,0.9167,0.9542,0.9305,0.9326,0.934,0.9349,1.0133,1.014,0,0,0,0,0,0,0.7791,0.7869,0.8424,0.845,0.8093,0.8398,0.8449,0.8579,0.8848,0.8883,0.8688,0.8684,0.9097,0.914,0.9183,0.9506,0.9329,0.9351,0.9365,1.0126,1.0135,1.0142,0,0,0,0,0,0,0.7775,0.784,0.8406,0.8161,0.8234,0.8417,0.8562,0.859,0.869,0.8892,0.8926,0.8756,0.9094,0.9151,0.9415,0.9522,0.9362,0.9383,1.0118,1.0129,1.0138,1.0155,0,0,0,0,0,0,0.7753,0.7834,0.7935,0.8162,0.8247,0.863,0.8569,0.8603,0.8729,0.8729,0.8965,0.8999,0.9094,0.938,0.9438,0.9552,0.9401,1.011,1.0123,1.0135,1.0145,1.0164,1.018,0,0,0,0,0,0.7725,0.7926,0.794,0.8006,0.8377,0.8636,0.8685,0.8787,0.8738,0.8841,0.8969,0.8991,0.95,0.9407,0.9473,0.9595,1.0103,1.0119,1.0134,1.0138,1.016,1.018,0,0,0,0,0,0,0.7711,0.7957,0.7976,0.8255,0.8423,0.8645,0.878,0.8809,0.8998,0.899,0.9111,0.9164,0.9422,0.9536,0.9426,0.9861,0.9798,0.9827,0.9778,0.9801,0.9818,0.9786,0.9421,0,0,0,0,0,0.7739,0.7927,0.8133,0.836,0.8443,0.8596,0.8713,0.8776,0.8957,0.903,0.9178,0.9355,0.9555,0.9684,0.988,1.0161,1.0213,1.0277,1.0294,1.0308,1.0332,1.0486,1.0516,1.0192,1.0192,1.0192,0,0,0.7802,0.7959,0.8072,0.8361,0.8499,0.8691,0.8656,0.8863,0.9007,0.9063,0.932,0.9434,0.964,0.9912,1.004,1.0015,1.0432,1.0327,1.0336,1.0354,1.0505,1.0535,1.0562,1.0203,1.0201,1.0199,0,0,0.8013,0.8152,0.8354,0.8491,0.8698,0.8798,0.8845,0.9063,0.9139,0.9398,0.9442,0.9616,0.9959,1.0102,1.0219,1.0477,1.0504,1.0538,1.063,1.0778,1.0803,1.0826,1.0917,1.0948,1.0561,1.0561,1.0561,0,0.8066,0.8356,0.8455,0.8658,0.8783,0.8836,0.9042,0.9171,0.9433,0.9519,0.9484,0.9911,1.0053,1.0358,1.042,1.0514,1.0573,1.0512,1.0791,1.0815,1.0838,1.0926,1.096,1.0564,1.0563,1.0563,1.0563,0,0.8408,0.8608,0.8747,0.8992,0.9133,0.9336,0.9467,0.9598,0.9647,0.975,1.0011,1.0183,1.0411,1.0488,1.0542,1.08,1.0777,1.0766,1.0705,1.087,1.0954,1.0989,1.0568,1.0567,1.0566,1.0565,0,0,0.8628,0.892,0.8969,0.9079,0.9309,0.9466,0.9671,0.9889,0.9998,1.0176,1.035,1.0634,1.0623,1.0756,1.0825,1.0955,1.1145,1.0928,1.0934,1.0961,1.1438,1.1445,1.1482,1.1162,1.1169,1.1175,1.142,0,0.8865,0.9228,0.9321,0.9631,0.9815,0.9865,1.0043,1.0203,1.0304,1.0476,1.0588,1.0787,1.0758,1.0838,1.0969,1.1094,1.1242,1.1078,1.1327,1.1335,1.1274,1.1527,1.1537,1.176,1.1454,1.146,1.1464,0,0.9193,0.937,0.9697,0.9897,0.9978,1.0136,1.0341,1.0505,1.0687,1.0751,1.0895,1.095,1.1165,1.109,1.1388,1.1273,1.138,1.1456,1.1468,1.1496,1.141,1.1561,1.1834,1.1867,1.1517,1.1513,1.1509,0,0.9317,0.9639,0.9875,0.9967,1.0208,1.0317,1.0422,1.0598,1.0722,1.0902,1.0983,1.1188,1.13,1.1457,1.1565,1.1501,1.1852,1.1788,1.1912,1.1909,1.1985,1.1979,1.2279,1.2053,1.2053,1.2052,1.2052,0,0.9573,0.977,0.9933,1.0078,1.03,1.0404,1.0621,1.0729,1.0883,1.1051,1.1108,1.1264,1.1397,1.1571,1.1657,1.1888,1.194,1.1997,1.2018,1.1993,1.1985,1.2065,1.2053,1.2061,1.2059,1.2058,1.2056,0,0.9751,0.9868,1.0128,1.0331,1.0386,1.0541,1.0716,1.0859,1.0958,1.1168,1.1224,1.1381,1.1589,1.171,1.1975,1.2032,1.2288,1.2302,1.2225,1.2235,1.2351,1.2338,1.2714,1.2767,1.2505,1.2508,1.251,0,0.9907,1.0059,1.0276,1.039,1.0495,1.0679,1.0804,1.0911,1.1039,1.1254,1.137,1.158,1.1753,1.2082,1.2221,1.2422,1.2441,1.2559,1.2473,1.244,1.2442,1.2431,1.2446,1.2574,1.2576,1.2578,1.258,0,1.017,1.0218,1.0394,1.059,1.0735,1.0896,1.1055,1.1146,1.1279,1.142,1.163,1.1764,1.2029,1.2236,1.2447,1.2558,1.2592,1.2605,1.2644,1.262,1.2569,1.2597,1.2265,1.2597,1.2595,1.2594,1.2593,1.2592,1.0342,1.0477,1.065,1.0843,1.0972,1.1118,1.1261,1.1375,1.1551,1.1772,1.1825,1.2045,1.2219,1.2505,1.262,1.2794,1.2775,1.2832,1.2847,1.2859,1.2861,1.2539,1.2833,1.2833,1.2833,1.2832,1.2832,0,1.0607,1.0718,1.0894,1.1112,1.1263,1.1276,1.1452,1.1578,1.177,1.1928,1.2095,1.2334,1.2533,1.2685,1.2889,1.3,1.302,1.305,1.3043,1.3068,1.2868,1.2813,1.3029,1.3029,1.3029,1.3029,1.3029,1.3029,1.0763,1.0992,1.1059,1.1352,1.1464,1.1677,1.1775,1.191,1.2035,1.2298,1.2463,1.2558,1.2714,1.2928,1.3112,1.3151,1.3224,1.3251,1.3293,1.3104,1.3082,1.3062,1.3011,1.3266,1.3266,1.3479,1.348,1.3482]}]]